Location: Newark
(59.4564°N, 26.6917°E)
Time: 15:57:44
(UTC+00:00)

SR - Pass Details

Date: 25 November 2019
Orbit: 573 x 882 km, 66.7° (Epoch: 12 December)

Event Time Altitude Azimuth Distance (km) Brightness Sun altitude
Rises 10:37:36 0° 168° (SSE) 3,262 ? 9.4°
Reaches altitude 10° 10:40:35 10° 152° (SSE) 2,392 ? 9.4°
Maximum altitude 10:44:22 19° 108° (ESE) 1,892 ? 9.3°
Drops below altitude 10° 10:48:19 10° 65° (ENE) 2,508 ? 9.2°
Sets 10:51:31 0° 49° (NE) 3,477 ? 9.1°
